Volver al catálogo

DELTA 1 DEB

ActivoSSO
NORAD 7093·DEBRIS·🇺🇸 United States

Lanzado Nov 6, 1973 desde Vandenberg Space Force Base

Loading…

Próximos Pases (próximas 24 horas)

TLE

ActualizadoSource: Space-Track

Época: Sep 14, 2026, 13:59 UTC

1 07093U 73086CM  26257.58319117 -.00000030  00000-0  14120-3 0  9995
2 07093 102.5590 285.1363 0071094 100.6260  53.1034 12.27070312356338

Sigue DELTA 1 DEB en tiempo real con AllMySat

Download on the App Store